Home   Weather   Milwaukee   Past weeks

Flag for USA Past Weather in Milwaukee, Wisconsin, USA — Yesterday and Last 2 Weeks

Now
30 °F

Mostly cloudy.


Feels Like: 30 °F
Forecast: 27 / 34 °F
Wind: No wind

Location: Milwaukee / Timmerman

Current Time: Dec 4, 2016 at 4:19:57 am

Latest Report: Dec 4, 2016 at 3:55 am


Visibility: 10 mi

Pressure: 30.21 "Hg

Humidity: 69%

Dew Point: 21 °F

Location of MilwaukeeLocation

Past Weather in Milwaukee — Graph

°F

Milwaukee Temperature Yesterday

Maximum temperature yesterday: 32 °F (at 12:15 am)
Minimum temperature yesterday: 30 °F (at 6:15 am)
Average temperature yesterday: 31 °F

High & Low Weather Summary for the Past Weeks

 TemperatureHumidityPressure
High52 °F (Nov 29, 12:45 pm)100% (Nov 27, 3:55 am)30.36 "Hg (Nov 27, 3:55 am)
Low21 °F (Nov 21, 4:55 am)33% (Nov 21, 2:45 pm)29.11 "Hg (Nov 28, 9:35 pm)
Average35 °F77%30.01 "Hg
* Reported Nov 19 3:15 am — Dec 4 3:15 am, Milwaukee, Weather by CustomWeather, © 2016

Note: Actual official high and low records may vary slightly from our data, if they occured in-between our weather recording intervals... More about our weather records

Advertising

Milwaukee Weather History for the Previous 24 Hours

Scroll right to see more
 ConditionsComfort  
Time TempWeatherWind HumidityBarometerVisibility
3:15 am
Sun, Dec 4
28 °FOvercast.3 mph74%30.22 "Hg10 mi
2:55 am30 °FPassing clouds.No wind69%30.23 "Hg10 mi
2:15 am28 °FClear.No wind74%30.24 "Hg10 mi
1:55 am30 °FClear.No wind69%30.24 "Hg10 mi
1:15 am30 °FClear.3 mph69%30.25 "Hg10 mi
12:55 am30 °FPassing clouds.3 mph69%30.25 "Hg10 mi
12:35 am30 °FPassing clouds.No wind69%30.26 "Hg10 mi
12:15 am30 °FClear.No wind69%30.26 "Hg10 mi
11:55 pm
Sat, Dec 3
30 °FClear.No wind69%30.26 "Hg10 mi
11:35 pm30 °FClear.3 mph69%30.27 "Hg10 mi
11:15 pm32 °FClear.No wind64%30.26 "Hg10 mi
10:55 pm30 °FClear.No wind69%30.26 "Hg10 mi
10:15 pm32 °FMostly cloudy.No wind64%30.26 "Hg10 mi
9:55 pm32 °FMostly cloudy.No wind64%30.27 "Hg10 mi
9:35 pm32 °FOvercast.No wind64%30.28 "Hg10 mi
9:10 pm32 °FOvercast.No wind64%30.28 "Hg10 mi
8:45 pm30 °FOvercast.No wind64%30.29 "Hg10 mi
7:45 pm30 °FOvercast.No wind69%30.29 "Hg10 mi
6:45 pm30 °FOvercast.No wind64%30.31 "Hg10 mi
4:45 pm30 °FMostly cloudy.No wind64%30.31 "Hg10 mi
3:45 pm30 °FOvercast.6 mph64%30.33 "Hg10 mi
2:45 pm30 °FOvercast.7 mph64%30.31 "Hg10 mi
1:45 pm32 °FOvercast.6 mph64%30.32 "Hg10 mi
12:45 pm32 °FOvercast.7 mph64%30.33 "Hg10 mi
11:45 am32 °FOvercast.5 mph64%30.31 "Hg10 mi
10:45 am30 °FOvercast.5 mph69%30.31 "Hg10 mi
9:45 am30 °FOvercast.7 mph69%30.33 "Hg10 mi
8:45 am30 °FOvercast.8 mph69%30.33 "Hg10 mi
7:45 am30 °FOvercast.8 mph69%30.35 "Hg10 mi
6:55 am30 °FOvercast.8 mph64%30.34 "Hg10 mi
6:15 am30 °FOvercast.7 mph69%30.33 "Hg10 mi
5:55 am32 °FOvercast.7 mph64%30.33 "Hg10 mi
5:35 am32 °FOvercast.6 mph64%30.33 "Hg10 mi
5:15 am32 °FOvercast.6 mph64%30.33 "Hg10 mi
4:55 am32 °FOvercast.9 mph64%30.33 "Hg10 mi
Weather by CustomWeather, © 2016

See weather overviewHow to use our weather pages